OBJECT E

Last updated on Sun Jun 12 2022 00:02:06 GMT+0000 (Coordinated Universal Time)

1 52801U 22060E 22159.51823971 -.00002422 76598-5 00000+0 0 9991 2 52801 41.4611 271.4403 0051726 128.0561 288.5231 16.09241380 531
UTC large
Height (km)
Speed (km/s)
/
Latitude / Longitude
Inclination (degrees)
Orbital Period (minutes)
Azimuth
Elevation
Range (km)
Doppler Factor

Next 0 passes for location: London (51.5072 / 0.1276)

Sorry there are no passes over London.